TimeIST,TemperatureF,Dew PointF,Humidity,Sea Level PressureIn,VisibilityMPH,Wind Direction,Wind SpeedMPH,Gust SpeedMPH,PrecipitationIn,Events,Conditions,WindDirDegrees,DateUTC
12:50 AM,60.8,46.4,59,30.04,-9999.0,SW,5.8,-,N/A,,Clear,230,2012-10-28 22:50:00
1:50 AM,59.0,48.2,67,30.04,-9999.0,WSW,6.9,-,N/A,,Clear,240,2012-10-28 23:50:00
2:50 AM,57.2,48.2,72,30.01,-9999.0,SSW,4.6,-,N/A,,Clear,210,2012-10-29 00:50:00
3:50 AM,59.0,48.2,67,30.01,-9999.0,Variable,1.2,-,N/A,,Clear,0,2012-10-29 01:50:00
4:50 AM,57.2,48.2,72,30.01,-9999.0,WSW,4.6,-,N/A,,Clear,250,2012-10-29 02:50:00
5:50 AM,57.2,48.2,72,30.01,-9999.0,WSW,4.6,-,N/A,,Clear,240,2012-10-29 03:50:00
6:50 AM,59.0,48.2,67,30.01,-9999.0,SW,5.8,-,N/A,,Clear,230,2012-10-29 04:50:00
7:50 AM,64.4,50.0,59,30.04,-9999.0,SW,2.3,-,N/A,,Clear,220,2012-10-29 05:50:00
8:50 AM,69.8,53.6,56,30.01,-9999.0,Variable,2.3,-,N/A,,Clear,0,2012-10-29 06:50:00
9:50 AM,73.4,50.0,44,30.01,-9999.0,NNE,5.8,-,N/A,,Clear,20,2012-10-29 07:50:00
10:50 AM,77.0,48.2,36,29.98,-9999.0,ENE,4.6,-,N/A,,Clear,70,2012-10-29 08:50:00
11:50 AM,80.6,46.4,30,29.95,-9999.0,ENE,3.5,-,N/A,,Clear,70,2012-10-29 09:50:00
12:50 PM,84.2,44.6,25,29.95,-9999.0,NE,4.6,-,N/A,,Clear,40,2012-10-29 10:50:00
1:50 PM,84.2,44.6,25,29.92,-9999.0,NE,5.8,-,N/A,,Clear,40,2012-10-29 11:50:00
2:50 PM,86.0,42.8,22,29.92,-9999.0,NE,6.9,-,N/A,,Clear,40,2012-10-29 12:50:00
3:50 PM,84.2,42.8,23,29.89,-9999.0,NE,8.1,-,N/A,,Clear,40,2012-10-29 13:50:00
4:50 PM,80.6,42.8,26,29.89,-9999.0,NNE,11.5,-,N/A,,Clear,20,2012-10-29 14:50:00
5:50 PM,77.0,44.6,32,29.92,-9999.0,NE,6.9,-,N/A,,Clear,50,2012-10-29 15:50:00
6:50 PM,75.2,44.6,34,29.92,-9999.0,NNE,5.8,-,N/A,,Clear,30,2012-10-29 16:50:00
7:50 PM,71.6,42.8,35,29.92,-9999.0,North,4.6,-,N/A,,Clear,10,2012-10-29 17:50:00
8:50 PM,69.8,42.8,38,29.92,-9999.0,Variable,1.2,-,N/A,,Clear,0,2012-10-29 18:50:00
9:50 PM,66.2,42.8,43,29.95,-9999.0,SW,5.8,-,N/A,,Clear,230,2012-10-29 19:50:00
10:50 PM,66.2,42.8,43,29.95,-9999.0,WSW,4.6,-,N/A,,Clear,250,2012-10-29 20:50:00
11:50 PM,64.4,42.8,45,29.92,-9999.0,SW,8.1,-,N/A,,Clear,230,2012-10-29 21:50:00